星链-2503 (STARLINK-2503 )

导读

STARLINK-2503是美国太空探索技术公司(SpaceX)于2021年4月7日发射的星链(Starlink)卫星,属于星链V1.0版本,是SpaceX星链全球卫星互联网项目的组成部分。它运行在近地轨道,近地点约355公里、远地点约357公里,轨道倾角约43度,参与组成低轨星座网络,为全球提供高速低延迟互联网服务。

基本信息
目录编号:
48151
目录名称:
STARLINK-2503
国际标识:
2021-027BM
轨道中心:
EARTH
卫星名称:
星链-2503
卫星全名:
星链-2503 (STARLINK-2503 )
卫星状态:
在轨 (已飞行1986 天)
发射日期:
2021-04-07 UTC
国别 :
美国 (US)
星等 :
--
该卫星已列入 空间交会检测服务 Space Conjunction Data Service (SCDS) ,当前飞行风险评估等级: 无高风险
轨道信息
数据来源 国际轨道数据
星历时间: 2026-09-13T21:25:15+0800
15小时前
查看轨道信息
半长轴: 6848.828km
偏心率: 0.0001271
轨道倾角: 53.161°
近地点辐角 84.425°
升交点赤经 358.369°
平近点角 275.689°
近地点: 469.82km
远地点: 471.562km
周期: 94.012分钟
每日圈数: 15.317166
详细信息
固有亮度:
5
最大亮度:
2.5
卫星平台:
Starlink V1.0
覆盖范围:
全球
运营商:
太空探索技术公司
运营商所在国:
美国
制造商(研发单位):
太空探索技术公司
制造商所在国:
美国
使用方式:
暂无
卫星简介
星链(Starlink)计划是由太空探索技术公司(SpaceX)提出的一个巨型低轨卫星互联网星座项目,计划在2019年至2024年间在太空搭建由约1.2万颗卫星组成的“星链”网络,其中1584颗将部署在地球上空550千米处的近地轨道,并从2020年开始工作。该卫星仍在工作。
2D轨道图
3D轨道图
轨道高度分析图
轨道倾角分析图
轨道综合分析图
查看轨道综合分析图
交会数据列表
事件ID 空间交会对象 最接近时刻(TCA) 交会距离 交会风险概率(CRP) 交会风险指数(CRI) 操作
CDM_260916-003904-815106-541121
2026-09-16T
00:39:07+0000
1.113 km
极远距离
1.19251E-5 中风险 0.57
CDM_260916-135704-815106-541121
2026-09-16T
13:57:44+0000
1.370 km
极远距离
5.857704E-6 低风险 0.5
CDM_260916-021304-815106-541121
2026-09-16T
02:13:04+0000
1.377 km
极远距离
5.761032E-6 低风险 0.5
CDM_260915-164804-815106-942921
2026-09-15T
16:48:01+0000
2.654 km
极远距离
1.513085E-6 低风险 0.39
CDM_260914-000604-815105-369124
2026-09-14T
00:06:27+0000
2.932 km
极远距离
1.328678E-6 低风险 0.37
CDM_260916-021004-815106-484221
2026-09-16T
02:10:04+0000
2.926 km
极远距离
1.295767E-6 低风险 0.37
与全量物体交会距离演化趋势 订阅飞行安全评估服务
与全量物体交会风险概率演化趋势 订阅飞行安全评估服务